Regional Weather Roundup
Issued by NWS

Home | Current Version | Previous Version | Text Only | Print | Product List | Glossary On
Versions: 1 2 3 4 5 6 7 8 9 10 11 12 13 14 15 16 17 18 19 20 21 22 23 24 25 26 27 28 29 30 31 32 33 34 35 36 37 38 39 40 41 42 43 44 45 46 47 48 49 50
000
ASUS43 KDTX 021610
RWRMI
MICHIGAN HOURLY REGIONAL WEATHER ROUNDUP
NATIONAL WEATHER SERVICE DETROIT/PONTIAC MI
1200 PM EDT SUN AUG 02 2015

NOTE: "FAIR" INDICATES FEW OR NO CLOUDS BELOW 12,000 FEET WITH NO
SIGNIFICANT WEATHER AND/OR OBSTRUCTION TO VISIBILITY.

MIZ047>049-052>055-059>063-066>070-074>076-081>083-021700-
SOUTHEAST LOWER MICHIGAN

CITY           SKY/WX    TMP DP  RH WIND       PRES   REMARKS
ADRIAN         SUNNY     82  68  62 W13G20    29.88S
ALMA           CLOUDY    83  72  69 SW10G24   29.78S
ANN ARBOR      SUNNY     83  69  62 SW10      29.85F
BAD AXE        MOSUNNY   82  65  57 SW13G18   29.77F
DETROIT CITY   SUNNY     82  67  60 SW13      29.85S
DETROIT        MOSUNNY   83  68  60 S10       29.86F
FLINT          SUNNY     85  66  53 SW15G22   29.79F
GROSSE ILE     SUNNY     82  70  65 S7        29.85F
HILLSDALE      SUNNY     84  67  56 SW13      29.88F
HOWELL         SUNNY     85  63  48 SW14G21   29.82F

CITY           SKY/WX    TMP DP  RH WIND       PRES   REMARKS
JACKSON        SUNNY     84  65  52 SW15      29.85F
LAMBERTVILLE   SUNNY     84  66  54 SW9G17    29.88S
LANSING        SUNNY     84  66  54 SW17G25   29.81F
LAPEER         NOT AVBL
MASON          SUNNY     81  64  55 SW12      29.83S
MONROE         SUNNY     82  69  63 SW9       29.86F
MT. CLEMENS    MOSUNNY   84  66  54 S13       29.81F
PONTIAC        MOSUNNY   82  68  62 SW9       29.82F
PORT HOPE        N/A     80  62  54 S9        29.73F
PORT HURON     SUNNY     81  64  57 S14       29.82F
TRI CITIES     PTSUNNY   83  69  62 SW15G22   29.76F
YPSILANTI      SUNNY     87  68  52 SW10      29.86F HX  90
$$
MIZ043>046-050>051-056>058-064>065-071>073-077>080-021700-
SOUTHWEST LOWER MICHIGAN

CITY           SKY/WX    TMP DP  RH WIND       PRES   REMARKS
BATTLE CREEK   MOSUNNY   85  70  60 SW17G23   29.85S
BENTON HARBOR  SUNNY     85  67  54 SW18G28   29.84S
BIG RAPIDS     PTSUNNY   81  70  69 SW14G23   29.74F
COLDWATER      MOSUNNY   80  69  69 SW12G26   29.86F
HOLLAND        SUNNY     83  67  58 SW24G32   29.81S
GRAND RAPIDS   PTSUNNY   86  68  54 SW15      29.80S
KALAMAZOO      MOSUNNY   85  68  56 SW20G29   29.84F
MARSHALL       SUNNY     83  69  61 SW12G22   29.85S
MUSKEGON       PTSUNNY   80  67  64 SW20G30   29.78S
$$
MIZ016>042-021700-
NORTHERN LOWER MICHIGAN

CITY           SKY/WX    TMP DP  RH WIND       PRES   REMARKS
ALPENA         LGT RAIN  63  59  87 NW9G24    29.73R
BEAVER ISLAND  LGT RAIN  64  61  93 SW12G20   29.67R
BELLAIRE       CLOUDY    76  67  71 SW7       29.67F
CADILLAC       CLOUDY    79  69  73 SW16G22   29.71F
CHARLEVOIX     CLOUDY    67  61  81 CALM      29.69F
FRANKFORT      CLOUDY    72  68  88 SW8       29.71R
GAYLORD        CLOUDY    77  65  66 SW13      29.68F
GRAYLING       CLOUDY    76  66  70 SW6       29.70F
HARBOR SPRINGS CLOUDY    65  61  87 CALM      29.65F
HOUGHTON LAKE  CLOUDY    77  68  73 SW12G17   29.71F
MANISTEE       CLOUDY    72  64  78 W21G26    29.76R THUNDER
OSCODA         CLOUDY    78  64  60 SW13G18   29.70F
PELLSTON       CLOUDY    65  62  90 S6        29.65S
TRAVERSE CITY  TSTM      80  68  66 SW9G23    29.66F
$$
MIZ007>008-015-021700-
EASTERN UPPER MICHIGAN

CITY           SKY/WX    TMP DP  RH WIND       PRES   REMARKS
KINROSS        CLOUDY    68  66  94 CALM      29.61F
MACKINAC ISLAN   N/A     65  65  97 S10       29.61F
NEWBERRY       PTSUNNY   68  64  86 S6        29.59F
S. S. MARIE    CLOUDY    69  65  86 VRB3      29.59F
$$
MIZ004>006-011>014-085-021700-
CENTRAL UPPER MICHIGAN

CITY           SKY/WX    TMP DP  RH WIND       PRES   REMARKS
MANISTIQUE     CLOUDY    66  63  88 SW3       29.60F
ESCANABA       CLOUDY    66  63  88 S6        29.60S
MENOMINEE      CLOUDY    75  66  73 SW10G21   29.61R
SAWYER-GWINN   TSTM      66  63  88 SW5       29.63S
$$
MIZ001>003-009>011-084-021700-
WESTERN UPPER MICHIGAN

CITY           SKY/WX    TMP DP  RH WIND       PRES   REMARKS
IRON MOUNTAIN  CLOUDY    73  64  73 CALM      29.63R
HOUGHTON       PTSUNNY   71  57  61 W10       29.56F
COPPER HARBOR    N/A     68  60  75 N6        29.55F
IRONWOOD       CLOUDY    68  63  83 W7        29.65R
$$

ABBREVIATIONS USED IN REMARKS
   TC - TEMPERATURE IN CELSIUS
  WCI - WIND CHILL INDEX
   HX - HEAT INDEX
  VSB - VISIBILITY



USA.gov is the U.S. government's official web portal to all federal, state and local government web resources and services.